Location: 5810 Zion Rd, Cleves, OH 45002, USA
(39.1922°N, 84.7113°W)
Time: 12:30:48
(UTC-05:00)

Courier 1B Rocket - Pass Details

Date: 12 December 2019
Orbit: 920 x 1202 km, 28.2° (Epoch: 19 January)

Event Time Altitude Azimuth Distance (km) Brightness Sun altitude
Rises 06:26:32 0° 236° (SW) 3,901 - -15.4°
Exits shadow 06:26:58 - 235° (SW) 3,766 7.7 -15.3°
Reaches altitude 10° 06:29:47 10° 225° (SW) 2,896 7.2 -14.8°
Maximum altitude 06:35:34 28° 169° (S) 1,823 6.7 -13.8°
Drops below altitude 10° 06:41:03 10° 113° (ESE) 2,730 8.9 -12.8°
Sets 06:44:00 0° 102° (ESE) 3,639 10.0 -12.2°
